Página principal
METAR-TAF:

METAR-TAF

Aeroportos :

Atar, Mauritânia

latitude: 20-30-24N, longitude: 013-02-35W, altura: 231 m

Observação actual do tempo

O boletim foi feito há 4 horas e 37 minutos, às 18:00 UTC
Vento 10 kt de noroeste
Temperatura 25°C
Humidade 18%
Pressão 1015 hPa
Visibilidade: 8000 m

METAR: GQPA 171800Z 32010KT 8000 NSC 25/M01 Q1015

Hora: 22:37 (22:37 UTC)


TAF: em falta

Observações e previsões do tempo de mais de 4000 aeroportos (mensagens METAR e TAF).

As estações disponíveis são os pontos amarelos e vermelhos sobre o mapa.

Mova o rato sobre o mapa para ver o nome da estação.

Depois clique no ponto para visualizar as observações e previsões meteorológicas.

Para alterar o mapa : clique nos botões verdes com uma cruz preta para aumentar o zoom; no botão verde com uma pitada de zoom; ou nas setas verdes para mapas adjacentes.


METAR-TAF: